This is the latest recevied weather packets stored in our database for station/object KC7YCE. If no packets are shown the sender has not sent any weather packets the latest 1 day(s).
| Time | Temp. | Humidity | Pressure | Rain* | Wind** | Luminosity | Snow |
|---|---|---|---|---|---|---|---|
| 1778046025 | 0° C | 94% | 1017.1 hPa | 0 mm | 0 m/s | - | - |
| 1778045425 | 0° C | 94% | 1017 hPa | 0 mm | 0 m/s | - | - |
| 1778044825 | 0° C | 94% | 1017 hPa | 0 mm | 0 m/s | - | - |
| 1778044225 | 0° C | 95% | 1016.9 hPa | 0 mm | 0 m/s | - | - |
| 1778043625 | -0.56° C | 94% | 1016.8 hPa | 0 mm | 0 m/s | - | - |
| 1778042365 | -1.11° C | 94% | 1016.7 hPa | 0 mm | 0 m/s | - | - |
| 1778041735 | -1.11° C | 94% | 1016.7 hPa | 0 mm | 0 m/s | - | - |
| 1778041135 | -0.56° C | 93% | 1016.8 hPa | 0 mm | 0 m/s | - | - |
| 1778040505 | -0.56° C | 93% | 1016.8 hPa | 0 mm | 0 m/s | - | - |
| 1778039875 | -0.56° C | 93% | 1016.9 hPa | 0 mm | 0 m/s | - | - |
| 1778039275 | 0° C | 93% | 1016.8 hPa | 0 mm | 0.45 m/s, 125° | - | - |
| 1778038675 | 0° C | 93% | 1016.5 hPa | 0 mm | 0 m/s | - | - |
| 1778038075 | 0° C | 93% | 1016.5 hPa | 0 mm | 0.45 m/s, 127° | - | - |
| 1778037445 | 0° C | 93% | 1016.4 hPa | 0 mm | 0 m/s | - | - |
| 1778036815 | 0° C | 92% | 1016.4 hPa | 0 mm | 0 m/s | - | - |
| 1778034325 | 1.11° C | 91% | 1016.1 hPa | 0 mm | 0 m/s | - | - |
| 1778033695 | 1.11° C | 90% | 1016 hPa | 0 mm | 0 m/s | - | - |
| 1778033095 | 1.67° C | 89% | 1015.9 hPa | 0 mm | 0 m/s | - | - |
| 1778031295 | 3.33° C | 86% | 1015.8 hPa | 0 mm | 0 m/s | - | - |
| 1778029494 | 3.89° C | 85% | 1016 hPa | 0 mm | 0 m/s | - | - |
| 1778028264 | 4.44° C | 84% | 1015.9 hPa | 0 mm | 0 m/s | - | - |
| 1778027664 | 4.44° C | 81% | 1015.9 hPa | 0 mm | 0 m/s | - | - |
| 1778027064 | 5° C | 83% | 1015.8 hPa | 0 mm | 0 m/s | - | - |
| 1778026464 | 5.56° C | 80% | 1015.7 hPa | 0 mm | 0 m/s | - | - |
| 1778025864 | 6.11° C | 77% | 1015.6 hPa | 0 mm | 0 m/s | - | - |
* Rain latest hour (hover to see other rain measurements)
** Current wind speed in m/s (hover to see current wind gust speed)